Location: Detroit
(42.3310°N, 83.0460°W)
Time: 05:52:14
(UTC-05:00)

A-11 Canister half - Visible Passes

Search period start: 31 January 2023 00:00
Search period end: 10 February 2023 00:00
Orbit: 1514 x 1686 km, 47.2° (Epoch: 31 January)

Date Brightness Start Highest point End Pass type
(mag) Time Alt. Az. Time Alt. Az. Time Alt. Az.
31 Jan 9.7 18:41:56 10° WNW 18:50:51 54° SW 18:59:43 10° SE visible
31 Jan 11.1 20:49:38 10° W 20:54:04 14° SW 20:58:32 10° SSW visible
01 Feb 9.7 18:18:57 10° WNW 18:27:58 57° SW 18:36:54 10° SE visible
01 Feb 11.1 20:26:14 10° W 20:31:15 16° SW 20:36:18 10° SSW visible
02 Feb 11.1 20:02:56 10° W 20:08:26 18° SW 20:13:58 10° SSW visible
03 Feb 11.1 19:39:42 10° W 19:45:38 19° SW 19:51:34 10° SSW visible
04 Feb 11.1 19:16:30 10° W 19:22:48 21° SW 19:29:07 10° S visible
05 Feb 11.2 18:53:20 10° W 18:59:59 23° SW 19:06:37 10° S visible
06 Feb 11.2 18:30:12 10° W 18:37:10 24° SW 18:44:05 10° S visible
07 Feb 11.2 18:07:05 10° WNW 18:14:20 26° SW 18:21:31 10° S visible
09 Feb 11.8 07:01:23 10° SSE 07:05:39 13° ESE 07:09:51 10° E visible
